Location: Knowlton
(51.2333°N, 1.2667°E)
Time: 09:19:44
(UTC+00:00)

USA 229 - Pass Details

Date: 18 April 2021
Orbit: 958 x 1254 km, 63.4° (Epoch: 23 April)

Event Time Altitude Azimuth Distance (km) Brightness Sun altitude
Rises 23:23:03 0° 315° (NW) 3,951 7.4 -27.2°
Reaches altitude 10° 23:25:43 10° 311° (NW) 3,031 6.7 -27.3°
Maximum altitude 23:32:49 58° 235° (SW) 1,374 4.0 -27.4°
Enters shadow 23:33:40 55° 210° (SSW) 1,419 4.0 -27.4°
